This is the latest recevied weather packets stored in our database for station/object K5OBH. If no packets are shown the sender has not sent any weather packets the latest 10 day(s).
| Time | Temp. | Humidity | Pressure | Rain* | Wind** | Luminosity | Snow |
|---|---|---|---|---|---|---|---|
| 1777483102 | 16.11° C | 65% | 1018.7 hPa | 0 mm | - | 565 W/m² | - |
| 1777482800 | 16.11° C | 65% | 1018.6 hPa | 0 mm | - | 617 W/m² | - |
| 1777482495 | 15.56° C | 66% | 1018.6 hPa | 0 mm | - | 626 W/m² | - |
| 1777482193 | 15.56° C | 66% | 1018.8 hPa | 0 mm | - | 334 W/m² | - |
| 1777481890 | 15.56° C | 66% | 1018.7 hPa | 0 mm | - | 281 W/m² | - |
| 1777481588 | 15° C | 66% | 1018.9 hPa | 0 mm | - | 597 W/m² | - |
| 1777481284 | 15° C | 67% | 1018.8 hPa | 0 mm | - | 298 W/m² | - |
| 1777480981 | 15° C | 68% | 1018.8 hPa | 0 mm | - | 254 W/m² | - |
| 1777480677 | 15° C | 68% | 1018.9 hPa | 0 mm | - | 249 W/m² | - |
| 1777480374 | 14.44° C | 69% | 1018.9 hPa | 0 mm | - | 372 W/m² | - |
| 1777480069 | 14.44° C | 69% | 1019 hPa | 0 mm | - | 329 W/m² | - |
| 1777479766 | 14.44° C | 69% | 1019.2 hPa | 0 mm | - | 487 W/m² | - |
| 1777479464 | 15° C | 70% | 1019 hPa | 0 mm | - | 321 W/m² | - |
| 1777479160 | 14.44° C | 69% | 1018.9 hPa | 0 mm | - | 651 W/m² | - |
| 1777478858 | 14.44° C | 70% | 1019.2 hPa | 0 mm | - | 300 W/m² | - |
| 1777478553 | 13.89° C | 71% | 1018.9 hPa | 0 mm | - | 291 W/m² | - |
| 1777478251 | 13.89° C | 71% | 1019.2 hPa | 0 mm | - | 299 W/m² | - |
| 1777477947 | 13.89° C | 71% | 1018.8 hPa | 0 mm | - | 268 W/m² | - |
| 1777477643 | 13.89° C | 71% | 1018.9 hPa | 0 mm | - | 327 W/m² | - |
| 1777477340 | 13.89° C | 71% | 1018.8 hPa | 0 mm | - | 298 W/m² | - |
| 1777477036 | 13.89° C | 71% | 1018.8 hPa | 0 mm | - | 466 W/m² | - |
| 1777476734 | 13.33° C | 72% | 1018.7 hPa | 0 mm | - | 453 W/m² | - |
| 1777476430 | 12.78° C | 73% | 1018.7 hPa | 0 mm | - | 258 W/m² | - |
| 1777476127 | 12.78° C | 72% | 1018.7 hPa | 0 mm | - | 248 W/m² | - |
| 1777475822 | 12.78° C | 73% | 1018.9 hPa | 0 mm | - | 204 W/m² | - |
* Rain latest hour (hover to see other rain measurements)
** Current wind speed in m/s (hover to see current wind gust speed)